Regional Weather Roundup
Issued by NWS Sterling, VA

Home | Current Version | Previous Version | Text Only | Print | Product List | Glossary On
Versions: 1 2 3 4 5 6 7 8 9 10 11 12 13 14 15 16 17 18 19 20 21 22 23 24 25 26 27 28 29 30 31 32 33 34 35 36 37 38 39 40 41 42 43 44 45 46 47 48 49 50
000
ASUS41 KLWX 080210
RWRLWX

REGIONAL WEATHER ROUNDUP
NATIONAL WEATHER SERVICE BALTIMORE MD/WASHINGTON DC
1000 PM EDT TUE JUL 07 2015

Note: "FAIR" indicates few or no clouds below 12,000 feet
with no significant weather and/or obstructions to visibility.
 TC=TEMPERATURE CELSIUS

 * =Non NWS site. Station does not report precipitation (e.g. rain,
    snow, etc.), thunder, or fog.

DCZ001-MDZ009-015-VAZ040>042-051-053>054-080300-
WASHINGTON METRO

CITY           SKY/WX    TMP DP  RH WIND       PRES   REMARKS
WASHINGTON NAT PTCLDY    83  74  74 S10       30.01R
DULLES         PTCLDY    80  70  71 S8        30.01R
ANDREWS AFB    CLEAR     78  71  77 S8        30.01R
FT BELVOIR     PTCLDY    77  71  83 SE3       30.01R
QUANTICO       PTCLDY    81  71  71 SW7       30.02R
COLLEGE PARK*  PTCLDY    82  70  65 S5        30.00R
LEESBURG*      PTCLDY    81  73  78 S13       30.01S
MANASSAS*      CLEAR     79  72  78 S3        30.01S
GAITHERSBURG*  PTCLDY    81  68  65 S3        30.05R

$$

MDZ006>007-011-014-080300-
BALTIMORE METRO

CITY           SKY/WX    TMP DP  RH WIND       PRES   REMARKS
BWI AIRPORT    MOCLDY    80  69  69 S3        30.00R
MD SCIENCE CTR   N/A     83  68  60 MISG      29.99R
MARTIN STATE   PTCLDY    81  73  78 S5        30.01R
ANNAPOLIS      CLEAR     81  69  67 S6        30.01R
FORT MEADE*    PTCLDY    72  70  94 CALM      30.03R

$$

MDZ012-015-019>023-080300-
MARYLAND EASTERN SHORE

CITY           SKY/WX    TMP DP  RH WIND       PRES   REMARKS
OCEAN CITY     PTCLDY    79  76  90 SW7       30.04R
SALISBURY      CLEAR     77  74  90 S5        30.04R
BAY BRIDGE AP*   N/A     81  68  65 S6        30.01R
CAMBRIDGE*     CLEAR     79  70  73 CALM      30.02R
EASTON*        CLEAR    N/A N/A N/A SW6       30.05R HAZE

$$

MDZ017>025-080300-
SOUTHERN MARYLAND

CITY           SKY/WX    TMP DP  RH WIND       PRES   REMARKS
PATUXENT RIVER PTCLDY    78  72  81 S5        30.03R
ST INIGOES     NOT AVBL
LEONARDTOWN*   CLEAR     79  70  73 S3        30.05R

$$

MDZ003>005-080300-
NORTH CENTRAL MARYLAND

CITY           SKY/WX    TMP DP  RH WIND       PRES   REMARKS
FREDERICK*     PTCLDY    79  72  78 S5        30.02R
HAGERSTOWN APT PTCLDY    81  69  67 S9        29.99R
WESTMINSTER*   PTCLDY    79  73  83 S5        30.02R

$$

MDZ501>502-080300-
WESTERN MARYLAND

CITY           SKY/WX    TMP DP  RH WIND       PRES   REMARKS
OAKLAND*       MOCLDY    68 N/A N/A SW9G17    30.12S
CUMBERLAND*    MOCLDY    81  64  57 SW8G20    30.04R

$$

VAZ025>031-080300-
SHENANDOAH VALLEY

CITY           SKY/WX    TMP DP  RH WIND       PRES   REMARKS
WINCHESTER*    PTCLDY    79  70  73 S5        30.02R
FRONT ROYAL*   FAIR      79  70  73 SW6       30.01R
LURAY*         FAIR      79  72  78 SW7       30.04R
NEW MARKET*    MOCLDY    78  68  72 SW8       30.03R
STAUNTON*      PTCLDY    78  69  76 S5        30.09R
WAYNESBORO*    FAIR      74  67  77 S7        30.09R

$$

WVZ021-048>050-054>055-080300-
EASTERN WEST VIRGINIA PANHANDLE

CITY           SKY/WX    TMP DP  RH WIND       PRES   REMARKS
MARTINSBURG    PTCLDY    77  70  79 SW3       30.00R
PETERSBURG*    MOCLDY    73  67  82 CALM      30.06R

$$

VAZ036>039-050-080300-
CENTRAL FOOTHILLS

CITY           SKY/WX    TMP DP  RH WIND       PRES   REMARKS
CHARLOTTESVILL MOCLDY    78  69  73 SW6       30.04R
CULPEPER*      PTCLDY    76  71  83 SW3       30.03R
ORANGE*        PTCLDY    77  72  83 CALM      30.05R HAZE
GORDONSVILLE*  FAIR      73  72  94 SW3       30.03R
WARRENTON*     FAIR      78  73  82 S3        30.02R

$$

VAZ055>057-080300-
NORTH AND CENTRAL PIEDMONT

CITY           SKY/WX    TMP DP  RH WIND       PRES   REMARKS
FREDERICKSBRG* PTCLDY    81  72  74 S5        30.01S
STAFFORD*      PTCLDY    77  70  77 S3        30.06R

$$

NCZ024-NYZ072-PAZ021-071-VAZ022-071-080300-
OTHER REGIONAL OBSERVATIONS

CITY           SKY/WX    TMP DP  RH WIND       PRES   REMARKS
NEW YORK CITY  CLEAR     82  68  62 W5        30.00R
PHILADELPHIA   PTCLDY    83  70  64 S8        30.00R
PITTSBURGH     RAIN      72  70  93 SW8       29.98R FOG
ROANOKE        MOCLDY    79  68  69 CALM      30.11R
RICHMOND       PTCLDY    79  72  79 S7        30.05R
RALEIGH        PTCLDY    82  72  71 S9        30.09R

$$

ANZ530>537-080300-
MARINE OBSERVATIONS

STATION/POSITION TIME  TEMP    WIND        PRES
                       AIR SEA DIR/SP/G
                 (UTC) (F)     (DEG/KT/KT) (MB)
THOMAS PT LIGHT  NOT AVBL
BALT KEY BRIDGE  0100   82     190/  7/  9 1015.0R
COVE POINT       0100   82     230/  8/  8 1016.7R
LEWISETTA        0100   82 81  210/  7/  8 1016.2R
SOLOMONS ISLAND  0100      81                N/A
PINEY POINT      0100          220/  7/  9   N/A

$$




USA.gov is the U.S. government's official web portal to all federal, state and local government web resources and services.